CFG208 MDPC-TFFF

Flight info

Callsign CFG208
Flight time 1h 14m
Altitude 39000
Route MELLA2Q MELLA G633 MAZ RTE12 JOSHE RTE4 COY A555 ILURI DCT EMOLA EMOLA2X
Aircraft A339/H-SDE1E2E3GHIJ4J7LM1OP2RVWXY/LB1

Departure

Time 2026-04-26 07:49
Airport Punta Cana International Airport (MDPC)

Arrival

Time 2026-04-26 09:03
Airport Martinique Aimé Césaire International Airport (TFFF)
Time Latitude Longitude Altitude Speed Heading
2026-04-26 07:14 18.56385 -68.36281 56 ft 0 kts 176°
2026-04-26 07:35 18.56403 -68.36283 48 ft 4 kts 180°
2026-04-26 07:35 18.56438 -68.36282 48 ft 4 kts 162°
2026-04-26 07:35 18.56458 -68.36290 48 ft 4 kts 135°
2026-04-26 07:35 18.56471 -68.36305 48 ft 4 kts 87°
2026-04-26 07:36 18.56468 -68.36332 48 ft 3 kts 84°
2026-04-26 07:36 18.56467 -68.36338 48 ft 1 kts 85°
2026-04-26 07:36 18.56467 -68.36340 48 ft 0 kts 85°
2026-04-26 07:42 18.56467 -68.36337 56 ft 2 kts 85°
2026-04-26 07:42 18.56469 -68.36313 55 ft 5 kts 85°
2026-04-26 07:42 18.56473 -68.36265 51 ft 8 kts 85°
2026-04-26 07:43 18.56478 -68.36195 56 ft 11 kts 85°
2026-04-26 07:43 18.56485 -68.36107 56 ft 13 kts 85°
2026-04-26 07:43 18.56495 -68.36000 51 ft 16 kts 84°
2026-04-26 07:43 18.56506 -68.35889 49 ft 13 kts 84°
2026-04-26 07:44 18.56527 -68.35797 50 ft 10 kts 57°
2026-04-26 07:44 18.56596 -68.35779 54 ft 12 kts 356°
2026-04-26 07:44 18.56674 -68.35786 49 ft 8 kts 354°
2026-04-26 07:44 18.56742 -68.35789 51 ft 11 kts
2026-04-26 07:45 18.56789 -68.35720 49 ft 13 kts 77°
2026-04-26 07:45 18.56800 -68.35611 52 ft 16 kts 84°
2026-04-26 07:45 18.56811 -68.35488 51 ft 18 kts 84°
2026-04-26 07:45 18.56822 -68.35356 48 ft 19 kts 85°
2026-04-26 07:46 18.56834 -68.35213 49 ft 20 kts 84°
2026-04-26 07:46 18.56847 -68.35079 53 ft 6 kts 85°
2026-04-26 07:46 18.56849 -68.35026 50 ft 8 kts 92°
2026-04-26 07:46 18.56823 -68.34967 52 ft 10 kts 115°
2026-04-26 07:47 18.56842 -68.34913 51 ft 3 kts 22°
2026-04-26 07:47 18.56855 -68.34928 51 ft 2 kts 313°
2026-04-26 07:47 18.56854 -68.34946 53 ft 3 kts 271°
2026-04-26 07:47 18.56854 -68.34983 50 ft 7 kts 270°
2026-04-26 07:48 18.56847 -68.35047 50 ft 13 kts 264°
2026-04-26 07:48 18.56814 -68.35433 50 ft 102 kts 265°
2026-04-26 07:48 18.56724 -68.36475 57 ft 178 kts 264°
2026-04-26 07:48 18.56566 -68.37905 395 ft 207 kts 262°
2026-04-26 07:49 18.56415 -68.39470 1042 ft 222 kts 263°
2026-04-26 07:49 18.56060 -68.41042 1993 ft 220 kts 247°
2026-04-26 07:49 18.55180 -68.42317 3007 ft 215 kts 220°
2026-04-26 07:50 18.52297 -68.42846 4576 ft 231 kts 167°
2026-04-26 07:50 18.50717 -68.42295 5102 ft 248 kts 160°
2026-04-26 07:50 18.49062 -68.41596 5569 ft 265 kts 158°
2026-04-26 07:50 18.47316 -68.40827 6123 ft 278 kts 159°
2026-04-26 07:51 18.45472 -68.40121 6743 ft 280 kts 162°
2026-04-26 07:51 18.43619 -68.39523 7314 ft 281 kts 166°
2026-04-26 07:51 18.41719 -68.39012 7171 ft 282 kts 168°
2026-04-26 07:51 18.39928 -68.38236 6881 ft 279 kts 147°
2026-04-26 07:52 18.38589 -68.36743 6798 ft 285 kts 122°
2026-04-26 07:52 18.37677 -68.34911 7243 ft 288 kts 118°
2026-04-26 07:52 18.36772 -68.33032 8058 ft 289 kts 118°
2026-04-26 07:52 18.35843 -68.31136 8757 ft 294 kts 119°
2026-04-26 07:53 18.34883 -68.29214 9461 ft 299 kts 120°
2026-04-26 07:53 18.33898 -68.27266 10144 ft 305 kts 120°
2026-04-26 07:53 18.32867 -68.25240 10416 ft 325 kts 120°
2026-04-26 07:53 18.31761 -68.23076 10604 ft 346 kts 120°
2026-04-26 07:54 18.30603 -68.20806 11053 ft 356 kts 120°
2026-04-26 07:54 18.29432 -68.18500 11693 ft 359 kts 120°
2026-04-26 07:54 18.28268 -68.16208 12320 ft 362 kts 120°
2026-04-26 07:54 18.27075 -68.13860 12941 ft 366 kts 121°
2026-04-26 07:55 18.25869 -68.11491 13566 ft 369 kts 121°
2026-04-26 07:55 18.24650 -68.09100 14118 ft 372 kts 121°
2026-04-26 07:55 18.23421 -68.06688 14646 ft 376 kts 121°
2026-04-26 07:55 18.22178 -68.04253 15196 ft 379 kts 121°
2026-04-26 07:56 18.20990 -68.01760 15683 ft 385 kts 114°
2026-04-26 07:56 18.20287 -67.99018 16210 ft 392 kts 100°
2026-04-26 07:56 18.20207 -67.96135 16727 ft 398 kts 87°
2026-04-26 07:56 18.20437 -67.93258 17196 ft 402 kts 86°
2026-04-26 07:57 18.20665 -67.90312 17700 ft 406 kts 87°
2026-04-26 07:57 18.20882 -67.87339 18205 ft 409 kts 87°
2026-04-26 07:57 18.21091 -67.84341 18650 ft 412 kts 87°
2026-04-26 07:57 18.21297 -67.81323 19104 ft 416 kts 87°
2026-04-26 07:58 18.21500 -67.78280 19574 ft 418 kts 87°
2026-04-26 07:58 18.21704 -67.75218 20036 ft 421 kts 87°
2026-04-26 07:58 18.21910 -67.72135 20505 ft 424 kts 87°
2026-04-26 07:58 18.22118 -67.69029 20979 ft 427 kts 87°
2026-04-26 07:59 18.22324 -67.65943 21430 ft 430 kts 87°
2026-04-26 07:59 18.22534 -67.62791 21925 ft 433 kts 87°
2026-04-26 07:59 18.22744 -67.59617 22413 ft 437 kts 87°
2026-04-26 07:59 18.22956 -67.56421 22900 ft 440 kts 87°
2026-04-26 08:00 18.23169 -67.53199 23374 ft 443 kts 87°
2026-04-26 08:00 18.23383 -67.49954 23800 ft 446 kts 87°
2026-04-26 08:00 18.23599 -67.46682 24182 ft 451 kts 87°
2026-04-26 08:00 18.23815 -67.43377 24556 ft 455 kts 87°
2026-04-26 08:01 18.24030 -67.40091 24932 ft 458 kts 87°
2026-04-26 08:01 18.24249 -67.36731 25303 ft 462 kts 87°
2026-04-26 08:01 18.24470 -67.33342 25673 ft 466 kts 87°
2026-04-26 08:01 18.24693 -67.29925 26043 ft 470 kts 87°
2026-04-26 08:02 18.24916 -67.26480 26405 ft 474 kts 87°
2026-04-26 08:02 18.25141 -67.23009 26765 ft 478 kts 87°
2026-04-26 08:02 18.25367 -67.19504 27121 ft 482 kts 87°
2026-04-26 08:02 18.25593 -67.15977 27444 ft 485 kts 87°
2026-04-26 08:03 18.25611 -67.12416 27783 ft 488 kts 92°
2026-04-26 08:03 18.25523 -67.08830 28138 ft 492 kts 92°
2026-04-26 08:03 18.25443 -67.05270 28494 ft 495 kts 92°
2026-04-26 08:03 18.25367 -67.01629 28835 ft 499 kts 92°
2026-04-26 08:04 18.25291 -66.97969 29185 ft 503 kts 92°
2026-04-26 08:04 18.25215 -66.94280 29514 ft 506 kts 92°
2026-04-26 08:04 18.25137 -66.90565 29834 ft 510 kts 92°
2026-04-26 08:04 18.25057 -66.86822 30173 ft 513 kts 92°
2026-04-26 08:05 18.24976 -66.83060 30519 ft 516 kts 92°
2026-04-26 08:05 18.24894 -66.79278 30884 ft 518 kts 92°
2026-04-26 08:05 18.24812 -66.75538 31235 ft 520 kts 92°
2026-04-26 08:05 18.24727 -66.71720 31577 ft 523 kts 92°
2026-04-26 08:06 18.24642 -66.67888 31878 ft 526 kts 93°
2026-04-26 08:06 18.24554 -66.64032 32215 ft 528 kts 93°
2026-04-26 08:06 18.24466 -66.60159 32522 ft 531 kts 93°
2026-04-26 08:06 18.24377 -66.56271 32789 ft 533 kts 93°
2026-04-26 08:07 18.24092 -66.52386 32998 ft 533 kts 101°
2026-04-26 08:07 18.23321 -66.48588 33207 ft 530 kts 109°
2026-04-26 08:07 18.22109 -66.44994 33371 ft 527 kts 117°
2026-04-26 08:07 18.20598 -66.41486 33547 ft 527 kts 118°
2026-04-26 08:08 18.19090 -66.37966 33772 ft 527 kts 118°
2026-04-26 08:08 18.17596 -66.34449 34009 ft 527 kts 118°
2026-04-26 08:08 18.16104 -66.30931 34225 ft 526 kts 118°
2026-04-26 08:08 18.14617 -66.27422 34449 ft 525 kts 118°
2026-04-26 08:09 18.13131 -66.23922 34684 ft 524 kts 118°
2026-04-26 08:09 18.11647 -66.20431 34895 ft 523 kts 118°
2026-04-26 08:09 18.10182 -66.16987 35122 ft 522 kts 118°
2026-04-26 08:09 18.08702 -66.13506 35382 ft 521 kts 119°
2026-04-26 08:10 18.07226 -66.10037 35631 ft 519 kts 119°
2026-04-26 08:10 18.05752 -66.06578 35890 ft 518 kts 119°
2026-04-26 08:10 18.04283 -66.03132 36150 ft 516 kts 119°
2026-04-26 08:10 18.02816 -65.99692 36424 ft 515 kts 119°
2026-04-26 08:11 18.01352 -65.96261 36674 ft 514 kts 120°
2026-04-26 08:11 17.99892 -65.92841 36980 ft 512 kts 120°
2026-04-26 08:11 17.98507 -65.89399 37238 ft 514 kts 115°
2026-04-26 08:11 17.97488 -65.85839 37426 ft 519 kts 108°
2026-04-26 08:12 17.96742 -65.82120 37638 ft 520 kts 107°
2026-04-26 08:12 17.95999 -65.78410 37875 ft 519 kts 107°
2026-04-26 08:12 17.95247 -65.74708 38098 ft 518 kts 107°
2026-04-26 08:12 17.94490 -65.71015 38339 ft 517 kts 107°
2026-04-26 08:13 17.93733 -65.67332 38560 ft 516 kts 107°
2026-04-26 08:13 17.92975 -65.63653 38763 ft 515 kts 107°
2026-04-26 08:13 17.92216 -65.59978 38919 ft 515 kts 107°
2026-04-26 08:13 17.91467 -65.56354 38943 ft 514 kts 107°
2026-04-26 08:14 17.89953 -65.49028 38946 ft 514 kts 107°
2026-04-26 08:14 17.88436 -65.41697 38950 ft 514 kts 107°
2026-04-26 08:15 17.86916 -65.34369 38947 ft 514 kts 107°
2026-04-26 08:15 17.85393 -65.27040 38951 ft 514 kts 107°
2026-04-26 08:16 17.83876 -65.19765 38949 ft 514 kts 107°
2026-04-26 08:16 17.82348 -65.12437 38950 ft 514 kts 107°
2026-04-26 08:17 17.80818 -65.05115 38952 ft 514 kts 107°
2026-04-26 08:17 17.79283 -64.97792 38960 ft 513 kts 108°
2026-04-26 08:18 17.78229 -64.94301 38957 ft 505 kts 119°
2026-04-26 08:18 17.76600 -64.91090 38967 ft 494 kts 130°
2026-04-26 08:18 17.74471 -64.88319 38967 ft 483 kts 142°
2026-04-26 08:18 17.72001 -64.85971 38964 ft 477 kts 147°
2026-04-26 08:19 17.66955 -64.81459 38964 ft 484 kts 139°
2026-04-26 08:19 17.62570 -64.76047 38963 ft 488 kts 135°
2026-04-26 08:20 17.58380 -64.70494 38966 ft 490 kts 134°
2026-04-26 08:20 17.54195 -64.64855 38965 ft 490 kts 134°
2026-04-26 08:21 17.50007 -64.59218 38964 ft 490 kts 134°
2026-04-26 08:21 17.45818 -64.53590 38962 ft 490 kts 134°
2026-04-26 08:22 17.41655 -64.48005 38953 ft 490 kts 134°
2026-04-26 08:22 17.37468 -64.42391 38967 ft 489 kts 134°
2026-04-26 08:23 17.33282 -64.36783 38963 ft 488 kts 134°
2026-04-26 08:23 17.29127 -64.31221 38961 ft 488 kts 134°
2026-04-26 08:24 17.24948 -64.25632 38954 ft 487 kts 134°
2026-04-26 08:24 17.20774 -64.20056 38955 ft 487 kts 134°
2026-04-26 08:25 17.16603 -64.14488 38952 ft 486 kts 134°
2026-04-26 08:25 17.12437 -64.08930 38951 ft 485 kts 134°
2026-04-26 08:26 17.08304 -64.03418 38952 ft 485 kts 134°
2026-04-26 08:26 17.04146 -63.97880 38952 ft 484 kts 133°
2026-04-26 08:27 16.99990 -63.92350 38950 ft 483 kts 133°
2026-04-26 08:27 16.95837 -63.86830 38947 ft 483 kts 133°
2026-04-26 08:28 16.91713 -63.81350 38937 ft 483 kts 133°
2026-04-26 08:28 16.87557 -63.75831 38943 ft 483 kts 133°
2026-04-26 08:29 16.83400 -63.70317 38935 ft 484 kts 133°
2026-04-26 08:29 16.79234 -63.64797 38944 ft 484 kts 133°
2026-04-26 08:30 16.75065 -63.59277 38943 ft 485 kts 133°
2026-04-26 08:30 16.70919 -63.53789 38941 ft 485 kts 133°
2026-04-26 08:31 16.66736 -63.48257 38944 ft 486 kts 133°
2026-04-26 08:31 16.62547 -63.42721 38948 ft 486 kts 133°
2026-04-26 08:32 16.58356 -63.37187 38949 ft 487 kts 133°
2026-04-26 08:32 16.54185 -63.31683 38951 ft 487 kts 133°
2026-04-26 08:33 16.49981 -63.26141 38955 ft 487 kts 133°
2026-04-26 08:33 16.45777 -63.20604 38954 ft 487 kts 133°
2026-04-26 08:34 16.41571 -63.15069 38958 ft 487 kts 133°
2026-04-26 08:34 16.37391 -63.09572 38955 ft 487 kts 133°
2026-04-26 08:35 16.33184 -63.04044 38957 ft 487 kts 133°
2026-04-26 08:35 16.28914 -62.98584 38954 ft 484 kts 137°
2026-04-26 08:36 16.24452 -62.93387 38953 ft 485 kts 137°
2026-04-26 08:36 16.19977 -62.88144 38954 ft 485 kts 137°
2026-04-26 08:37 16.15493 -62.82895 38955 ft 485 kts 137°
2026-04-26 08:37 16.11000 -62.77643 38953 ft 486 kts 137°
2026-04-26 08:38 16.06504 -62.72392 38953 ft 486 kts 137°
2026-04-26 08:38 16.02032 -62.67173 38956 ft 487 kts 137°
2026-04-26 08:39 15.97523 -62.61915 38959 ft 487 kts 137°
2026-04-26 08:39 15.93011 -62.56659 38955 ft 487 kts 137°
2026-04-26 08:40 15.88495 -62.51403 38960 ft 487 kts 136°
2026-04-26 08:40 15.83982 -62.46151 38961 ft 487 kts 136°
2026-04-26 08:41 15.79505 -62.40944 38955 ft 485 kts 136°
2026-04-26 08:41 15.77268 -62.38343 38723 ft 482 kts 136°
2026-04-26 08:41 15.75036 -62.35748 38122 ft 481 kts 136°
2026-04-26 08:42 15.72804 -62.33156 37316 ft 482 kts 136°
2026-04-26 08:42 15.70565 -62.30559 36357 ft 485 kts 136°
2026-04-26 08:42 15.68306 -62.27940 35170 ft 489 kts 136°
2026-04-26 08:42 15.66023 -62.25293 33827 ft 495 kts 136°
2026-04-26 08:43 15.63750 -62.22659 32335 ft 498 kts 136°
2026-04-26 08:43 15.61433 -62.19976 30766 ft 501 kts 135°
2026-04-26 08:43 15.59095 -62.17270 29161 ft 505 kts 135°
2026-04-26 08:43 15.56767 -62.14569 27934 ft 500 kts 135°
2026-04-26 08:44 15.54467 -62.11899 27025 ft 493 kts 135°
2026-04-26 08:44 15.52206 -62.09277 26405 ft 482 kts 135°
2026-04-26 08:44 15.50004 -62.06724 25982 ft 468 kts 135°
2026-04-26 08:44 15.47863 -62.04247 25569 ft 455 kts 135°
2026-04-26 08:45 15.45781 -62.01838 25163 ft 444 kts 135°
2026-04-26 08:45 15.43729 -61.99466 24757 ft 442 kts 135°
2026-04-26 08:45 15.41700 -61.97126 24361 ft 442 kts 135°
2026-04-26 08:45 15.39651 -61.94762 23971 ft 439 kts 135°
2026-04-26 08:46 15.37619 -61.92418 23576 ft 435 kts 135°
2026-04-26 08:46 15.35605 -61.90095 23110 ft 432 kts 134°
2026-04-26 08:46 15.33606 -61.87788 22654 ft 429 kts 134°
2026-04-26 08:46 15.31617 -61.85493 22200 ft 426 kts 134°
2026-04-26 08:47 15.29644 -61.83216 21755 ft 424 kts 134°
2026-04-26 08:47 15.27680 -61.80951 21307 ft 421 kts 134°
2026-04-26 08:47 15.25733 -61.78707 20882 ft 418 kts 134°
2026-04-26 08:47 15.23822 -61.76505 20456 ft 415 kts 134°
2026-04-26 08:48 15.21896 -61.74288 20037 ft 413 kts 134°
2026-04-26 08:48 15.19992 -61.72094 19603 ft 406 kts 134°
2026-04-26 08:48 15.18102 -61.69917 19113 ft 407 kts 134°
2026-04-26 08:48 15.16213 -61.67743 18388 ft 404 kts 134°
2026-04-26 08:49 15.14301 -61.65649 17522 ft 396 kts 139°
2026-04-26 08:49 15.12201 -61.63848 16645 ft 388 kts 146°
2026-04-26 08:49 15.09951 -61.62360 15805 ft 381 kts 151°
2026-04-26 08:49 15.07686 -61.60963 14977 ft 377 kts 151°
2026-04-26 08:50 15.05481 -61.59586 14188 ft 373 kts 150°
2026-04-26 08:50 15.03280 -61.58202 13350 ft 368 kts 150°
2026-04-26 08:50 15.01108 -61.56833 12484 ft 363 kts 150°
2026-04-26 08:50 14.98972 -61.55487 11859 ft 357 kts 150°
2026-04-26 08:51 14.94735 -61.52820 11063 ft 355 kts 150°
2026-04-26 08:51 14.92627 -61.51493 10964 ft 355 kts 150°
2026-04-26 08:51 14.90514 -61.50163 10955 ft 356 kts 150°
2026-04-26 08:52 14.88406 -61.48837 10851 ft 352 kts 150°
2026-04-26 08:52 14.86330 -61.47530 10299 ft 347 kts 150°
2026-04-26 08:52 14.84359 -61.46290 10089 ft 325 kts 150°
2026-04-26 08:52 14.82504 -61.45121 9883 ft 299 kts 150°
2026-04-26 08:53 14.80776 -61.44032 9277 ft 286 kts 150°
2026-04-26 08:53 14.79209 -61.43050 8519 ft 282 kts 150°
2026-04-26 08:53 14.77549 -61.42010 7740 ft 277 kts 150°
2026-04-26 08:53 14.75910 -61.40984 6977 ft 273 kts 149°
2026-04-26 08:54 14.74300 -61.39975 6178 ft 269 kts 149°
2026-04-26 08:54 14.72712 -61.38979 5395 ft 264 kts 148°
2026-04-26 08:54 14.71175 -61.38012 4587 ft 260 kts 148°
2026-04-26 08:54 14.69640 -61.37049 3761 ft 256 kts 148°
2026-04-26 08:55 14.68131 -61.36102 2954 ft 252 kts 148°
2026-04-26 08:55 14.66653 -61.35175 2319 ft 245 kts 147°
2026-04-26 08:55 14.65169 -61.34243 2049 ft 251 kts 147°
2026-04-26 08:55 14.63676 -61.33303 1953 ft 250 kts 148°
2026-04-26 08:56 14.62196 -61.32374 1947 ft 249 kts 147°
2026-04-26 08:56 14.60714 -61.31447 1944 ft 250 kts 147°
2026-04-26 08:56 14.59250 -61.30530 1941 ft 248 kts 147°
2026-04-26 08:56 14.57806 -61.29625 1938 ft 233 kts 147°
2026-04-26 08:57 14.56484 -61.28798 1938 ft 212 kts 147°
2026-04-26 08:57 14.55380 -61.27883 1947 ft 204 kts 127°
2026-04-26 08:57 14.54855 -61.26545 1948 ft 204 kts 99°
2026-04-26 08:57 14.54874 -61.25126 1939 ft 191 kts 85°
2026-04-26 08:58 14.55084 -61.23822 1934 ft 177 kts 82°
2026-04-26 08:58 14.55312 -61.22573 1946 ft 182 kts 83°
2026-04-26 08:58 14.55527 -61.21293 1937 ft 176 kts 83°
2026-04-26 08:58 14.55737 -61.20053 1952 ft 179 kts 82°
2026-04-26 08:59 14.55952 -61.18793 1951 ft 179 kts 83°
2026-04-26 08:59 14.56165 -61.17540 1946 ft 177 kts 83°
2026-04-26 08:59 14.56378 -61.16283 1941 ft 177 kts 82°
2026-04-26 08:59 14.56585 -61.15091 1936 ft 158 kts 83°
2026-04-26 09:00 14.56770 -61.13987 1952 ft 161 kts 83°
2026-04-26 09:00 14.56963 -61.12863 1943 ft 157 kts 83°
2026-04-26 09:00 14.57154 -61.11742 1890 ft 161 kts 84°
2026-04-26 09:00 14.57341 -61.10634 1687 ft 153 kts 82°
2026-04-26 09:01 14.57524 -61.09586 1491 ft 144 kts 83°
2026-04-26 09:01 14.57689 -61.08604 1314 ft 139 kts 83°
2026-04-26 09:01 14.57855 -61.07631 1126 ft 133 kts 82°
2026-04-26 09:01 14.58019 -61.06670 965 ft 137 kts 83°
2026-04-26 09:02 14.58181 -61.05726 779 ft 136 kts 82°
2026-04-26 09:02 14.58344 -61.04758 624 ft 133 kts 83°
2026-04-26 09:02 14.58494 -61.03814 388 ft 136 kts 80°
2026-04-26 09:02 14.58674 -61.02887 228 ft 131 kts 79°
2026-04-26 09:03 14.58834 -61.01931 67 ft 137 kts 75°
2026-04-26 09:03 14.58987 -61.01013 29 ft 112 kts 79°
2026-04-26 09:03 14.59074 -61.00504 21 ft 50 kts 80°
2026-04-26 09:03 14.59129 -61.00168 22 ft 38 kts 80°
2026-04-26 09:04 14.59165 -61.00039 26 ft 11 kts 51°
2026-04-26 09:04 14.59235 -61.00024 27 ft 11 kts 357°
2026-04-26 09:04 14.59317 -61.00035 29 ft 13 kts 352°
2026-04-26 09:04 14.59370 -61.00074 31 ft 2 kts 303°
2026-04-26 09:05 14.59378 -61.00089 31 ft 2 kts 297°
2026-04-26 09:05 14.59390 -61.00114 30 ft 6 kts 296°
2026-04-26 09:05 14.59416 -61.00166 31 ft 10 kts 300°
2026-04-26 09:05 14.59450 -61.00206 31 ft 3 kts 320°
2026-04-26 09:06 14.59471 -61.00204 26 ft 3 kts
2026-04-26 09:06 14.59489 -61.00183 26 ft 5 kts 45°
2026-04-26 09:06 14.59503 -61.00168 26 ft 2 kts 47°
2026-04-26 09:06 14.59517 -61.00153 26 ft 1 kts 48°
2026-04-26 09:07 14.59521 -61.00148 26 ft 0 kts 48°